NOAA NWS Hourly Roundups by Site

Regional Weather Roundup for Bismarck, ND

To Select Another Site Choose from List

Select Site:  

000
ASUS43 KBIS 022110
RWRBIS

NWR BROADCAST TEXT
NATIONAL WEATHER SERVICE BISMARCK ND
400 PM CDT SUN OCT 02 2022

NOTE: "FAIR" INDICATES FEW OR NO CLOUDS BELOW 12,000 FEET WITH NO
SIGNIFICANT WEATHER AND/OR OBSTRUCTIONS TO VISIBILITY.


CITY           SKY/WX    TMP DP  RH WIND       PRES   REMARKS
WILLISTON      MOSUNNY   61  49  64 CALM      30.09F
MINOT          MOSUNNY   62  50  64 SE5       30.08F
MINOT AFB      MOSUNNY   62  51  68 SE5       30.06S
BISMARCK       PTSUNNY   70  53  54 E6        30.06F
DICKINSON      PTSUNNY   72  49  44 E7        30.04F
GARRISON         N/A     67  51  56 CALM      30.07F
HETTINGER ARPT PTSUNNY   75  49  39 SE12      30.04F
JAMESTOWN      MOSUNNY   76  49  38 SE14G25   30.08F
CARRINGTON     FAIR      75  50  41 S14       30.10F
HAZEN          FAIR      68  52  56 N3        30.08S
MANDAN         PTSUNNY   66  55  68 E6        30.07F
OAKES          FAIR      75  46  35 SE20      30.11F
RUGBY          FAIR      63  54  72 SE12      30.09F
STANLEY        FAIR      57  52  82 VRB3      30.09F
TIOGA          FAIR      57  54  88 VRB3      30.10F
WATFORD CITY   FAIR      63  52  67 NE7       30.08F
$$

CITY           SKY/WX    TMP DP  RH WIND       PRES   REMARKS
GRAND FORKS    PTSUNNY   70  51  51 S14       30.13F
GRAND FORKS AF PTSUNNY   69  50  50 S14       30.11F
DEVILS LAKE    PTSUNNY   58  54  86 E10       30.11F
FARGO          PTSUNNY   71  48  43 S20G31    30.16F
CANDO          PTSUNNY   55  54  94 SE6       30.13F
CAVALIER       FAIR      59  57  94 S8        30.13F
GRAFTON        FAIR      66  52  59 SE16      30.14F
GWINNER        MOSUNNY   72  50  46 SE18      30.13F
LANGDON        DRIZZLE   55  55 100 SE7       30.14R
ROLLA          FAIR      61  52  72 SE12      30.12S
WALHALLA       FAIR      61  52  72 S12       30.13F
$$

CITY           SKY/WX    TMP DP  RH WIND       PRES   REMARKS
ABERDEEN       PTSUNNY   75  47  36 S12       30.10F
MOBRIDGE       PTSUNNY   82  50  32 SE9       30.01F
BUFFALO          N/A     72  52  49 E8        30.01F
RAPID CITY     PTSUNNY   73  53  49 S15       30.03F
GLASGOW        CLOUDY    58  52  80 E5        30.08F
SIDNEY         SUNNY     62  53  72 VRB3      30.08F
WOLF POINT     CLOUDY    55  51  86 E5        30.10F
GLENDIVE       MOSUNNY   58  52  80 NE7       30.08F
MILES CITY     CLOUDY    61  53  75 W6        30.06F THUNDER
BAKER          MOSUNNY   68  52  56 VRB3      30.06F
$$

CITY           SKY/WX    TMP DP  RH WIND       PRES   REMARKS
BILLINGS       PTSUNNY   59  46  62 VRB5      30.09F
GREAT FALLS    CLOUDY    56  50  80 VRB3      30.08F
REGINA         CLOUDY    55  48  76 S6        30.11F
ESTEVAN        CLOUDY   N/A N/A N/A S6        30.10R
$$



 

View Past Reports for Bismarck, ND.

Products Courtesy of NOAA-NWS
NWS Information Parsing Script by Ken True at Saratoga Weather - Script by SE Lincoln Weather.